Regional Weather Roundup
Issued by NWS

Home | Current Version | Previous Version | Graphics & Text | Print | Product List | Glossary On
Versions: 1 2 3 4 5 6 7 8 9 10 11 12 13 14 15 16 17 18 19 20 21 22 23 24 25 26 27 28 29 30 31 32 33 34 35 36 37 38 39 40 41 42 43 44 45 46 47 48 49 50
000
ASUS43 KFSD 261502
RWRSD

WEATHER ROUNDUP FOR SOUTH DAKOTA
NATIONAL WEATHER SERVICE SIOUX FALLS SD
1000 AM CDT THU MAY 26 2016

NOTE: "FAIR" INDICATES FEW OR NO CLOUDS BELOW 12,000 FEET WITH NO
SIGNIFICANT WEATHER AND/OR OBSTRUCTIONS TO VISIBILITY.


SDZ001>005-009-010-012>017-261600-
NORTHWEST AND NORTH CENTRAL SOUTH DAKOTA

CITY           SKY/WX    TMP DP  RH WIND       PRES   REMARKS
BUFFALO          N/A     60  43  53 W9        29.82S
FAITH            N/A     61  45  55 W10       29.87F
MOBRIDGE       SUNNY     63  50  62 S7        29.84S
$$

SDZ012>016-024>037-041>051-057-063-072>074-261600-
SOUTHWEST AND SOUTH CENTRAL SOUTH DAKOTA

CITY           SKY/WX    TMP DP  RH WIND       PRES   REMARKS
RAPID CTY ARPT MOSUNNY   62  42  47 N13G20    29.90F
PIERRE         SUNNY     65  51  60 SE3       29.85F
CUSTER         SUNNY     56  35  45 NW6       29.96S
ELLSWORTH AFB  SUNNY     62  42  48 NW9       29.90S
PHILIP         SUNNY     63  51  65 NW8       29.87F
PINE RIDGE     SUNNY     60  44  55 W9        29.92S
WINNER         FAIR      69  53  56 SE9       29.89R
$$

SDZ004>011-016>023-039-040-261600-
NORTHEAST SOUTH DAKOTA

CITY           SKY/WX    TMP DP  RH WIND       PRES   REMARKS
ABERDEEN       SUNNY     65  52  62 SW9       29.85S
WATERTOWN      SUNNY     66  50  56 W12       29.85S
BROOKINGS      SUNNY     66  50  56 NW8       29.86F
SISSETON         N/A     69  46  43 NW12      29.80S
$$

SDZ017-020-022-023-036>040-048>070-261600-
SOUTHEAST SOUTH DAKOTA

CITY           SKY/WX    TMP DP  RH WIND       PRES   REMARKS
SIOUX FALLS    MOSUNNY   70  53  54 N5        29.87S
HURON          SUNNY     64  50  60 W3        29.86F
MITCHELL       SUNNY     67  52  58 E5        29.88S
YANKTON        SUNNY     64  52  63 SE6       29.89R
$$

ABBREVIATIONS USED IN REMARKS
   TC - TEMPERATURE IN CELSIUS
  WCI - WIND CHILL INDEX
   HX - HEAT INDEX
  VSB - VISIBILITY




USA.gov is the U.S. government's official web portal to all federal, state and local government web resources and services.